Location: Krasnoyarskiy Pitomnik
(51.1333°N, 71.6167°E)
Time: 00:01:47
(UTC+00:00)

deb Explorer IX - Pass Details

Date: 21 April 2024
Orbit: 513 x 891 km, 38.7° (Epoch: 21 May)

Event Time Altitude Azimuth Distance (km) Brightness Sun altitude
Rises 09:34:11 0° 257° (WSW) 3,509 ? 41.5°
Reaches altitude 10° 09:37:23 10° 242° (WSW) 2,583 ? 41.1°
Maximum altitude 09:41:52 21° 196° (SSW) 1,911 ? 40.6°
Drops below altitude 10° 09:46:17 10° 150° (SSE) 2,542 ? 40.0°
Sets 09:49:24 0° 135° (SE) 3,439 ? 39.6°
